This demonstration page uses our WeatherBlox Daily Observations layout. Learn more.

Left ArrowRight Arrow

39.51506, -84.39828

Hourly Observations for September 22, 2016

Temp ( °F °C ) Dew Point ( °F °C ) Humidity (%) Winds ( mph kmh ) Pressure ( in mb ) Visibility ( mi km ) Precip ( " mm )
12:15 am 00:15 Clear 63 17.2 57 13.9 81 81 N N/A 30.12 1020 10 16 N/A
12:35 am 00:35 Clear 63 17 57 13.9 82 82 N N/A 30.12 1020 10 16 N/A
12:55 am 00:55 Clear 62 16.8 57 13.8 83 83 N N/A 30.12 1020 10 16 N/A
1:15 am 01:15 Clear 62 16.6 56 13.5 82 82 N 3 6 30.15 1021 10 16 N/A
1:35 am 01:35 Clear 62 16.6 56 13.5 82 82 N 3 6 30.15 1021 10 16 N/A
1:55 am 01:55 Clear 62 16.9 56 13.5 81 81 N N/A 30.12 1020 10 16 N/A
2:15 am 02:15 Clear 62 16.6 56 13.3 81 81 N N/A 30.15 1021 10 16 N/A
2:35 am 02:35 Clear 62 16.7 56 13.3 80 80 N N/A 30.12 1020 10 16 N/A
2:55 am 02:55 Clear 61 16.1 55 13 82 82 N 3 6 30.15 1021 10 16 N/A
3:15 am 03:15 Clear 62 16.4 56 13.2 82 82 N N/A 30.15 1021 10 16 N/A
3:35 am 03:35 Clear 61 16 55 13 83 83 N N/A 30.15 1021 10 16 N/A
3:55 am 03:55 Clear 61 16 55 13 83 83 N N/A 30.12 1020 10 16 N/A
4:15 am 04:15 Clear 60 15.5 55 12.7 84 84 N N/A 30.12 1020 7 11 N/A
4:35 am 04:35 Clear 60 15.5 55 12.8 84 84 N N/A 30.12 1020 10 16 N/A
4:55 am 04:55 Clear 60 15.3 55 12.5 84 84 N N/A 30.12 1020 10 16 N/A
5:15 am 05:15 Clear 60 15.3 55 12.5 84 84 N N/A 30.12 1020 10 16 N/A
5:35 am 05:35 Clear 60 15.4 55 12.6 84 84 N 3 6 30.12 1020 10 16 N/A
5:55 am 05:55 Clear 60 15.3 55 12.5 84 84 N 5 7 30.15 1021 10 16 N/A
6:15 am 06:15 Clear 61 16 55 13 83 83 N 3 6 30.15 1021 10 16 N/A
6:35 am 06:35 Clear 61 16 55 13 83 83 N 3 6 30.15 1021 10 16 N/A
6:55 am 06:55 Clear 60 15.7 55 12.7 82 82 N N/A 30.15 1021 10 16 N/A
7:15 am 07:15 Clear 61 15.9 55 13 83 83 N N/A 30.15 1021 10 16 N/A
7:35 am 07:35 Sunny 60 15.8 55 12.9 83 83 N N/A 30.15 1021 7 11 N/A
7:55 am 07:55 Sunny 60 15.6 55 12.6 82 82 N N/A 30.15 1021 7 11 N/A
8:15 am 08:15 Sunny 61 16 56 13.1 83 83 N 3 6 30.15 1021 7 11 N/A
8:35 am 08:35 Sunny 62 16.9 57 13.9 83 83 N N/A 30.12 1020 10 16 N/A
8:55 am 08:55 Sunny 65 18.3 59 14.9 81 81 N N/A 30.12 1020 10 16 N/A
9:15 am 09:15 Sunny 69 20.8 62 16.7 77 77 N N/A 30.12 1020 10 16 N/A
9:35 am 09:35 Sunny 69 20.8 61 16.2 75 75 N N/A 30.12 1020 10 16 N/A
9:55 am 09:55 Sunny 70 21 60 15.5 71 71 N N/A 30.12 1020 10 16 N/A
10:15 am 10:15 Sunny 74 23.6 62 16.9 66 66 N N/A 30.12 1020 10 16 N/A
10:35 am 10:35 Sunny 74 23.6 60 15.8 62 62 N N/A 30.12 1020 10 16 N/A
10:55 am 10:55 Sunny 77 25 62 16.4 59 59 N N/A 30.12 1020 10 16 N/A
11:15 am 11:15 Sunny 78 25.3 60 15.6 55 55 N N/A 30.12 1020 10 16 N/A
11:35 am 11:35 Sunny 80 26.5 61 16.3 54 54 N N/A 30.12 1020 10 16 N/A
11:55 am 11:55 Sunny 81 27.2 60 15.8 50 50 N N/A 30.12 1020 10 16 N/A
12:15 pm 12:15 Sunny 82 28 59 15.1 45 45 SW 3 6 30.12 1020 10 16 N/A
12:35 pm 12:35 Sunny 83 28.1 56 13.1 40 40 N N/A 30.12 1020 10 16 N/A
12:55 pm 12:55 Sunny 83 28.3 56 13.2 39 39 SSW 3 6 30.09 1019 10 16 N/A
1:15 pm 13:15 Sunny 84 28.9 55 12.7 37 37 SW 3 6 30.09 1019 10 16 N/A
1:35 pm 13:35 Sunny 86 29.8 53 11.4 32 32 S 5 7 30.06 1018 10 16 N/A
1:55 pm 13:55 Sunny 85 29.3 52 11.3 33 33 N N/A 30.06 1018 10 16 N/A
2:15 pm 14:15 Sunny 87 30.7 56 13.4 35 35 W 3 6 30.06 1018 10 16 N/A
2:35 pm 14:35 Sunny 87 30.7 55 12.6 33 33 N N/A 30.03 1017 10 16 N/A
2:55 pm 14:55 Sunny 87 30.8 54 12.3 32 32 N N/A 30.03 1017 10 16 N/A
3:15 pm 15:15 Sunny 90 32.1 54 12.1 29 29 N N/A 30.03 1017 10 16 N/A
3:35 pm 15:35 Sunny 90 32.1 51 10.7 27 27 N N/A 30.03 1017 10 16 N/A
3:55 pm 15:55 Sunny 90 32.1 53 11.6 28 28 N N/A 30.00 1016 10 16 N/A
4:15 pm 16:15 Sunny 90 32.1 54 12 29 29 N N/A 30.00 1016 10 16 N/A
4:35 pm 16:35 Sunny 90 32.1 54 12 29 29 W 3 6 30.00 1016 10 16 N/A
4:55 pm 16:55 Sunny 90 32.1 54 12.2 30 30 W 3 6 30.00 1016 10 16 N/A
5:15 pm 17:15 Sunny 90 32.1 55 12.6 30 30 W 3 6 30.00 1016 10 16 N/A
5:35 pm 17:35 Sunny 90 32.1 56 13.6 32 32 WNW 3 6 30.00 1016 10 16 N/A
5:55 pm 17:55 Sunny 87 30.7 55 12.8 33 33 N N/A 30.00 1016 10 16 N/A
6:15 pm 18:15 Sunny 87 30.7 56 13.1 34 34 N N/A 30.00 1016 10 16 N/A
6:35 pm 18:35 Sunny 87 30.5 57 14.1 37 37 N N/A 30.00 1016 10 16 N/A
6:55 pm 18:55 Sunny 80 26.9 65 18.6 60 60 N N/A 30.03 1017 10 16 N/A
7:15 pm 19:15 Sunny 79 26.1 67 19.5 67 67 N N/A 30.03 1017 10 16 N/A
7:35 pm 19:35 Clear 74 23.6 65 18.4 73 73 N N/A 30.03 1017 10 16 N/A
7:55 pm 19:55 Clear 74 23.6 66 19 75 75 N N/A 30.03 1017 10 16 N/A
8:15 pm 20:15 Clear 74 23.6 65 18.6 74 74 NNW 3 6 30.03 1017 10 16 N/A
8:35 pm 20:35 Clear 70 21.2 62 16.8 76 76 N N/A 30.03 1017 10 16 N/A
8:55 pm 20:55 Clear 69 20.8 62 16.9 78 78 N N/A 30.03 1017 10 16 N/A
9:15 pm 21:15 Clear 69 20.8 62 16.9 78 78 N N/A 30.03 1017 10 16 N/A
9:35 pm 21:35 Clear 69 20.8 62 16.8 78 78 N N/A 30.03 1017 10 16 N/A
9:55 pm 21:55 Clear 69 20.8 63 17 79 79 N N/A 30.03 1017 10 16 N/A
10:15 pm 22:15 Clear 69 20.8 63 17 79 79 N N/A 30.03 1017 10 16 N/A
10:35 pm 22:35 Clear 69 20.8 63 17.2 80 80 N N/A 30.03 1017 10 16 N/A
10:55 pm 22:55 Clear 69 20.8 63 17.2 80 80 N N/A 30.03 1017 10 16 N/A
11:15 pm 23:15 Clear 69 20.8 63 17.2 80 80 N N/A 30.03 1017 10 16 N/A
11:35 pm 23:35 Clear 69 20.8 63 17.3 80 80 N N/A 30.03 1017 10 16 N/A
11:55 pm 23:55 Clear 69 20.8 63 17.4 81 81 N N/A 30.03 1017 10 16 N/A

Powered by AerisWeather